Regional Weather Roundup
Issued by NWS

Home | Current Version | Previous Version | Text Only | Print | Product List | Glossary On
Versions: 1 2 3 4 5 6 7 8 9 10 11 12 13 14 15 16 17 18 19 20 21 22 23 24 25 26 27 28 29 30 31 32 33 34 35 36 37 38 39 40 41 42 43 44 45 46 47 48 49 50
825
ASUS43 KLMK 252310
RWRKY
KENTUCKY REGIONAL WEATHER ROUNDUP
NATIONAL WEATHER SERVICE LOUISVILLE KY
700 PM EDT TUE APR 25 2017

NOTE "FAIR" INDICATES FEW OR NO CLOUDS BELOW 12,000 FEET
WITH NO SIGNIFICANT WEATHER AND/OR OBSTRUCTIONS TO VISIBILITY.

KYZ001>023-026-027-061>063-070>075-260000-
WESTERN AND SOUTH CENTRAL KENTUCKY

CITY           SKY/WX    TMP DP  RH WIND       PRES   REMARKS
PADUCAH        SUNNY     79  52  38 S10G22    29.58F
HENDERSON      SUNNY     75  56  51 S14       29.62F
OWENSBORO      MOSUNNY   76  58  53 S13       29.64F
HOPKINSVILLE   SUNNY     77  56  47 SE8       29.65F
BOWLING GREEN  MOSUNNY   75  56  51 S8        29.69F
GLASGOW        SUNNY     74  55  52 SE6       29.70S
$$

KYZ024-025-028>034-038-045-046-053-260000-
NORTH CENTRAL KENTUCKY

CITY           SKY/WX    TMP DP  RH WIND       PRES   REMARKS
LOUISVILLE/SDF MOSUNNY   76  56  49 S9        29.67F
LOUISVILLE/LOU SUNNY     75  57  53 S5        29.68S
FORT KNOX      CLOUDY    72  57  58 S7        29.67S
$$

KYZ035>037-039>044-047>052-055>060-089>105-260000-
NORTHEAST KENTUCKY

CITY           SKY/WX    TMP DP  RH WIND       PRES   REMARKS
LEXINGTON      SUNNY     72  55  55 SW6       29.71F
COVINGTON      MOSUNNY   74  58  57 S8        29.69S
FRANKFORT      SUNNY     73  55  53 S7        29.69F
$$

KYZ054-064>069-076>088-106>120-260000-
SOUTHEAST KENTUCKY

CITY           SKY/WX    TMP DP  RH WIND       PRES   REMARKS
JACKSON        CLOUDY    71  55  56 CALM      29.74S
LONDON         CLOUDY    71  54  54 W7        29.73F
SOMERSET       SUNNY     70  52  52 CALM      29.74S
MIDDLESBORO    CLOUDY    70  58  65 CALM      29.75S
MONTICELLO     CLEAR     71  56  58 NE8       29.74F
$$





USA.gov is the U.S. government's official web portal to all federal, state and local government web resources and services.